Humidity-temperature Sensor

Selected Measurement Type: Relative Humidity

 
Relative Humidity [%]     6 entries per hour
Showing data from 5/25/2020 (00:00:00 Z) to 5/18/2020 (00:01:00 Z)
Previous Next [ Day | 3-Days | 7-Days ]
First Last
Prev [ Day | 3-Days | 7-Days ] Next
First Last

Start Time:     :
End Time:     :     
Time (in GMT) :00 :50 :40 :30 :20 :10
Previous Next [ Day | 3-Days | 7-Days ]
First Last
Prev [ Day | 3-Days | 7-Days ] Next
First Last


123 => good data
MM => data is determined as missing
-- => data not received/configured
Back to Top Back to Top
5/25/2020 00:00 to 23:10 92.15 92.88 91.71 92.26 92.38 91.71
5/24/2020 23:00 to 22:10 92.36 92.59 92.36 93.13 93.15 92.99
5/24/2020 22:00 to 21:10 93.22 93.38 93.28 93.57 93.72 93.09
5/24/2020 21:00 to 20:10 92.86 92.63 93.11 92.99 93.55 93.67
5/24/2020 20:00 to 19:10 93.36 93.67 93.61 93.30 93.86 94.24
5/24/2020 19:00 to 18:10 93.70 93.82 93.55 94.63 94.51 94.49
5/24/2020 18:00 to 17:10 94.15 94.15 94.49 94.82 94.59 94.38
5/24/2020 17:00 to 16:10 94.05 94.03 94.24 93.38 93.86 93.51
5/24/2020 16:00 to 15:10 92.86 92.36 92.94 92.69 93.63 94.86
5/24/2020 15:00 to 14:10 93.63 94.17 94.97 95.13 95.24 95.01
5/24/2020 14:00 to 13:10 94.86 95.34 95.47 95.76 96.39 95.30
5/24/2020 13:00 to 12:10 94.82 95.30 95.05 96.20 95.84 95.30
5/24/2020 12:00 to 11:10 95.78 95.43 94.90 95.01 95.32 95.07
5/24/2020 11:00 to 10:10 94.49 93.78 95.53 94.68 95.22 95.30
5/24/2020 10:00 to 9:10 95.55 95.41 95.09 94.59 94.80 94.38
5/24/2020 09:00 to 8:10 95.01 95.11 94.34 93.42 94.70 93.84
5/24/2020 08:00 to 7:10 94.59 95.41 94.74 94.72 94.40 93.92
5/24/2020 07:00 to 6:10 94.53 94.09 94.40 94.55 94.32 94.09
5/24/2020 06:00 to 5:10 93.55 93.70 93.63 92.47 92.74 93.90
5/24/2020 05:00 to 4:10 93.53 93.82 94.43 94.24 93.97 93.70
5/24/2020 04:00 to 3:10 94.15 93.95 92.90 93.09 93.09 92.69
5/24/2020 03:00 to 2:10 93.38 93.38 93.45 92.72 93.09 93.47
5/24/2020 02:00 to 1:10 94.55 94.47 94.36 94.13 94.26 93.70
5/24/2020 01:00 to 0:10 93.76 93.99 93.95 93.34 93.38 93.86
5/24/2020 00:00 to 23:10 93.55 93.57 93.78 93.59 93.32 93.19
5/23/2020 23:00 to 22:10 93.76 93.70 94.11 94.76 95.01 94.45
5/23/2020 22:00 to 21:10 94.32 94.24 94.47 94.59 94.68 93.70
5/23/2020 21:00 to 20:10 93.90 94.80 94.78 95.16 94.57 94.68
5/23/2020 20:00 to 19:10 94.43 94.88 94.95 94.61 94.59 94.26
5/23/2020 19:00 to 18:10 94.30 94.34 94.13 93.76 93.95 94.13
5/23/2020 18:00 to 17:10 94.20 94.45 93.78 94.01 93.47 93.51
5/23/2020 17:00 to 16:10 93.78 93.72 93.17 93.88 94.17 93.84
5/23/2020 16:00 to 15:10 93.61 93.63 93.28 93.72 93.17 93.22
5/23/2020 15:00 to 14:10 92.86 93.38 93.51 93.82 94.38 94.97
5/23/2020 14:00 to 13:10 95.07 94.40 95.34 96.36 96.95 97.26
5/23/2020 13:00 to 12:10 96.91 96.78 96.39 96.82 97.01 97.03
5/23/2020 12:00 to 11:10 97.39 97.57 97.30 97.41 96.74 97.18
5/23/2020 11:00 to 10:10 96.55 95.49 96.01 95.82 96.01 95.66
5/23/2020 10:00 to 9:10 95.72 96.16 96.18 95.82 95.74 95.11
5/23/2020 09:00 to 8:10 95.28 96.09 96.24 96.05 95.34 95.76
5/23/2020 08:00 to 7:10 96.07 95.97 95.51 95.05 94.78 94.43
5/23/2020 07:00 to 6:10 93.74 94.03 94.72 94.55 93.67 94.28
5/23/2020 06:00 to 5:10 93.88 93.53 92.49 92.17 92.11 91.57
5/23/2020 05:00 to 4:10 91.90 91.40 90.98 91.55 91.53 91.65
5/23/2020 04:00 to 3:10 91.67 91.17 91.01 91.40 91.65 91.61
5/23/2020 03:00 to 2:10 91.78 92.55 92.82 93.51 94.55 94.22
5/23/2020 02:00 to 1:10 94.30 94.53 94.11 94.30 94.26 93.92
5/23/2020 01:00 to 0:10 93.55 92.61 92.19 92.51 92.09 92.65
5/23/2020 00:00 to 23:10 92.84 93.47 93.57 93.55 93.26 93.38
5/22/2020 23:00 to 22:10 93.57 93.82 93.99 93.80 94.40 94.49
5/22/2020 22:00 to 21:10 94.68 94.11 94.55 95.32 95.61 95.63
5/22/2020 21:00 to 20:10 96.18 96.36 96.03 95.51 96.01 96.20
5/22/2020 20:00 to 19:10 95.68 95.97 96.03 96.01 96.26 95.88
5/22/2020 19:00 to 18:10 95.43 95.20 94.78 95.11 95.95 94.86
5/22/2020 18:00 to 17:10 96.49 97.62 97.68 97.59 97.78 98.16
5/22/2020 17:00 to 16:10 98.28 98.32 98.20 98.12 97.99 97.72
5/22/2020 16:00 to 15:10 97.30 96.70 96.24 96.03 96.47 97.66
5/22/2020 15:00 to 14:10 99.35 99.47 99.72 -- -- --
5/22/2020 14:00 to 13:10 -- -- -- -- -- --
5/22/2020 13:00 to 12:10 -- -- -- -- -- --
5/22/2020 12:00 to 11:10 -- -- -- -- -- --
5/22/2020 11:00 to 10:10 -- -- -- -- -- --
5/22/2020 10:00 to 9:10 -- -- -- -- -- --
5/22/2020 09:00 to 8:10 -- -- -- -- -- --
5/22/2020 08:00 to 7:10 -- -- -- -- -- --
5/22/2020 07:00 to 6:10 -- -- -- -- -- --
5/22/2020 06:00 to 5:10 -- -- -- -- -- --
5/22/2020 05:00 to 4:10 -- -- -- -- -- --
5/22/2020 04:00 to 3:10 -- -- -- -- -- 99.83
5/22/2020 03:00 to 2:10 99.68 99.51 99.30 99.12 98.89 98.72
5/22/2020 02:00 to 1:10 98.53 98.41 98.22 98.01 97.99 97.91
5/22/2020 01:00 to 0:10 97.41 96.91 96.20 95.24 95.18 95.47
5/22/2020 00:00 to 23:10 95.74 95.18 94.82 94.88 94.51 94.61
5/21/2020 23:00 to 22:10 94.76 94.11 94.47 94.84 94.65 95.76
5/21/2020 22:00 to 21:10 96.55 96.84 96.93 96.68 96.99 96.93
5/21/2020 21:00 to 20:10 96.89 96.80 97.26 97.24 97.45 97.37
5/21/2020 20:00 to 19:10 97.47 97.68 97.41 97.66 97.95 98.05
5/21/2020 19:00 to 18:10 97.87 97.95 97.80 97.68 97.70 97.74
5/21/2020 18:00 to 17:10 97.62 97.39 97.43 97.37 97.18 96.80
5/21/2020 17:00 to 16:10 96.82 96.84 96.97 96.99 97.09 97.03
5/21/2020 16:00 to 15:10 97.20 97.05 96.93 96.32 96.89 97.80
5/21/2020 15:00 to 14:10 98.87 99.16 99.58 -- -- --
5/21/2020 14:00 to 13:10 -- -- -- -- -- --
5/21/2020 13:00 to 12:10 -- -- -- -- -- --
5/21/2020 12:00 to 11:10 -- -- -- -- -- --
5/21/2020 11:00 to 10:10 -- -- -- -- -- --
5/21/2020 10:00 to 9:10 -- -- -- -- -- --
5/21/2020 09:00 to 8:10 -- -- -- -- -- --
5/21/2020 08:00 to 7:10 -- -- -- -- -- 99.76
5/21/2020 07:00 to 6:10 99.49 99.26 98.93 98.74 98.70 98.57
5/21/2020 06:00 to 5:10 98.78 98.97 98.89 98.76 98.51 98.45
5/21/2020 05:00 to 4:10 98.28 98.22 98.10 97.99 97.74 97.28
5/21/2020 04:00 to 3:10 96.93 96.61 96.28 95.91 95.78 96.30
5/21/2020 03:00 to 2:10 96.82 97.55 97.95 98.10 98.39 98.07
5/21/2020 02:00 to 1:10 98.55 98.76 98.80 98.91 99.10 99.08
5/21/2020 01:00 to 0:10 99.14 99.22 99.41 99.58 99.81 --
5/21/2020 00:00 to 23:10 -- -- -- -- 99.85 99.22
5/20/2020 23:00 to 22:10 98.28 97.57 96.53 94.53 93.49 93.36
5/20/2020 22:00 to 21:10 93.07 92.42 91.57 90.40 90.03 90.25
5/20/2020 21:00 to 20:10 90.15 90.15 90.19 90.96 92.07 92.94
5/20/2020 20:00 to 19:10 93.49 93.80 93.57 92.74 92.67 93.05
5/20/2020 19:00 to 18:10 93.22 93.22 93.34 93.42 92.99 92.57
5/20/2020 18:00 to 17:10 92.82 93.13 92.59 92.19 92.19 91.74
5/20/2020 17:00 to 16:10 91.65 92.67 93.28 93.30 93.22 93.78
5/20/2020 16:00 to 15:10 94.05 94.49 95.16 96.59 97.82 98.41
5/20/2020 15:00 to 14:10 98.68 98.74 98.70 98.49 98.60 98.60
5/20/2020 14:00 to 13:10 98.22 97.49 98.83 99.64 -- --
5/20/2020 13:00 to 12:10 -- -- -- -- -- --
5/20/2020 12:00 to 11:10 -- -- -- -- -- --
5/20/2020 11:00 to 10:10 -- -- -- -- -- --
5/20/2020 10:00 to 9:10 -- -- -- -- -- --
5/20/2020 09:00 to 8:10 -- -- -- -- -- --
5/20/2020 08:00 to 7:10 -- -- -- -- -- --
5/20/2020 07:00 to 6:10 -- -- -- -- -- --
5/20/2020 06:00 to 5:10 -- 99.78 99.66 99.58 99.55 99.47
5/20/2020 05:00 to 4:10 99.55 99.78 -- -- -- 99.87
5/20/2020 04:00 to 3:10 99.72 99.62 99.49 99.26 98.97 98.68
5/20/2020 03:00 to 2:10 98.57 98.30 98.20 97.99 97.82 97.64
5/20/2020 02:00 to 1:10 97.28 96.89 96.72 96.53 96.03 95.41
5/20/2020 01:00 to 0:10 94.61 94.05 93.72 94.17 93.97 94.65
5/20/2020 00:00 to 23:10 94.76 94.78 94.95 95.01 95.16 95.20
5/19/2020 23:00 to 22:10 95.32 95.34 95.57 95.91 95.95 95.66
5/19/2020 22:00 to 21:10 95.74 95.63 95.84 95.63 95.95 95.93
5/19/2020 21:00 to 20:10 95.70 95.51 95.13 95.01 95.26 95.41
5/19/2020 20:00 to 19:10 95.72 95.97 95.91 96.14 95.78 96.14
5/19/2020 19:00 to 18:10 96.45 96.61 96.57 96.55 96.36 96.18
5/19/2020 18:00 to 17:10 95.99 95.66 96.16 96.82 97.14 97.30
5/19/2020 17:00 to 16:10 97.22 97.16 96.82 96.74 96.64 96.86
5/19/2020 16:00 to 15:10 97.05 96.91 96.61 96.28 96.16 96.36
5/19/2020 15:00 to 14:10 97.05 96.68 96.80 96.47 96.70 97.51
5/19/2020 14:00 to 13:10 98.01 98.57 99.18 99.72 99.68 99.64
5/19/2020 13:00 to 12:10 99.58 99.58 99.62 99.62 99.47 99.30
5/19/2020 12:00 to 11:10 99.08 98.80 98.57 98.51 98.80 98.72
5/19/2020 11:00 to 10:10 98.70 98.93 98.93 99.18 99.26 99.41
5/19/2020 10:00 to 9:10 99.60 99.74 -- -- -- --
5/19/2020 09:00 to 8:10 -- 99.72 99.53 99.45 99.37 99.37
5/19/2020 08:00 to 7:10 99.49 99.76 99.83 99.83 99.81 99.76
5/19/2020 07:00 to 6:10 99.70 99.74 -- -- -- --
5/19/2020 06:00 to 5:10 -- -- 99.78 99.53 99.35 99.30
5/19/2020 05:00 to 4:10 99.41 99.49 99.60 99.55 99.35 99.03
5/19/2020 04:00 to 3:10 98.66 98.39 98.32 98.39 98.60 98.66
5/19/2020 03:00 to 2:10 98.64 98.62 98.66 98.66 98.78 98.74
5/19/2020 02:00 to 1:10 98.49 98.20 97.99 97.66 97.47 97.16
5/19/2020 01:00 to 0:10 96.64 96.16 95.03 94.72 95.22 94.38
5/19/2020 00:00 to 23:10 94.86 94.11 93.95 93.72 93.30 93.84
5/18/2020 23:00 to 22:10 93.86 94.03 94.40 94.11 93.59 93.34
5/18/2020 22:00 to 21:10 93.49 94.09 94.15 94.15 94.80 94.82
5/18/2020 21:00 to 20:10 95.18 95.07 95.05 95.16 95.82 95.99
5/18/2020 20:00 to 19:10 96.07 95.70 95.11 96.07 96.51 96.70
5/18/2020 19:00 to 18:10 96.51 96.36 96.11 95.86 96.18 96.57
5/18/2020 18:00 to 17:10 96.61 96.95 97.22 97.20 97.37 97.43
5/18/2020 17:00 to 16:10 97.43 97.32 97.12 96.93 96.68 96.64
5/18/2020 16:00 to 15:10 96.95 97.34 97.26 97.30 97.62 97.76
5/18/2020 15:00 to 14:10 97.82 97.89 98.16 98.85 98.39 97.87
5/18/2020 14:00 to 13:10 98.14 98.49 98.89 98.99 99.08 98.91
5/18/2020 13:00 to 12:10 99.01 99.30 99.43 99.43 99.49 99.55
5/18/2020 12:00 to 11:10 99.55 99.53 99.60 99.51 99.47 99.58
5/18/2020 11:00 to 10:10 99.62 99.64 99.72 -- -- --
5/18/2020 10:00 to 9:10 -- -- -- -- 99.87 99.81
5/18/2020 09:00 to 8:10 99.78 99.70 99.60 99.51 99.37 99.28
5/18/2020 08:00 to 7:10 99.22 99.22 99.18 99.05 98.85 98.76
5/18/2020 07:00 to 6:10 98.76 98.60 98.51 98.35 98.10 97.87
5/18/2020 06:00 to 5:10 97.91 97.99 97.91 98.01 97.95 98.01
5/18/2020 05:00 to 4:10 97.80 97.85 97.87 97.80 97.59 97.51
5/18/2020 04:00 to 3:10 97.53 97.66 97.57 97.57 97.37 97.16
5/18/2020 03:00 to 2:10 97.24 97.37 97.26 96.97 96.86 96.78
5/18/2020 02:00 to 1:10 96.53 96.55 96.07 95.76 95.24 94.40
5/18/2020 01:00 to 0:10 92.82 92.19 91.36 90.34 91.21 90.92